TITAN 3C TRANSTAGE DEB, 43516

Orbit data source: Space-Track

TITAN 3C TRANSTAGE DEB, 43516 is space debris in GEO originally from a launch on Sun, 09 Feb 1969 UTC launched from the Air Force Eastern Test Range (AFETR). Debris objects in space refer to the collection of defunct objects orbiting the Earth. Examples of debris include non-operational satellites, rocket bodies, and fragments generated from explosions, collisions, or faulty payload assembly.

Not visible in the next 10 days
Identifier
43516, 1969-013U
Orbit
GEO
Country
Flag of USUS
Related business
Manufacturer
Martin Marietta
Mission
Spacecraft
Bus & Motor
Unknown
Mass
Unknown
Launch date (UTC)
1969-02-09 (57 years ago)
Launch vehicle
Unknown
Launch site
Air Force Eastern Test Range (AFETR)
Object type
Payload
Rocket body
Debris
Shape & HBR
Unknown shape, 1.1 m
Radar Cross Section
RCS unknown

Expand to show TLE details & history
Last TLE update: 10 hours ago

TLE from 10 hours ago
0 TITAN 3C TRANSTAGE DEB
1 43516U 69013U   25295.73272150 -.00000159  00000-0  00000-0 0  9994
2 43516   1.0151  54.3801 0102868  35.0401 325.5012  0.96513614 26234
Epoch: 2025-10-22T17:35Z
TLE epoch observation values (Epoch: 2025-10-22T17:35:07.137Z)
Latitude
-0.00001°
Longitude
119.03622°
Altitude
36,508.528 km
Speed
3.062 km/s
True Right ascension
03h 36m 52s
True Declination
0° 00' 00"
Sunlit
Object was in daylight at epoch
Visualization orbit readout
Latitude
Unknown
Longitude
Unknown
Altitude
Unknown
Speed
Unknown
Apparent Right ascension
Unknown
Apparent Declination
Unknown
Sunlit
N/A
Visualization observer readout
Local Sidereal Time
22:26:21
Azimuth
Unknown
Elevation
Unknown
Doppler factor
Unknown
Orbital elements
Apogee altitude
37,320.171 km
Perigee altitude
36,430.294 km
Semi-major axis
43,253.369 km
Eccentricity
0.01029
Inclination
1.0151°
RAAN
54.3801°
Arg. of periapsis
35.0401°
True anomaly
324.82642°
Mean anomaly
325.5012°
Eccentric anomaly
325.16453°
Mean motion
0.24128 °/min
Orbital period
1,492.07 mins
BSTAR
0
Loading maneuver chart data...
Computing Atmospheric mass density...

Documentation

Showing up to 5 results
|